Theta_e
330 335 341 342 342 342 341 341 342 340 343 348 348 348 352 352 353 353 351 349 348 350 348 348 350 350 350 350 349 349 349 350 352 353 353 353 354 353 355 355 358 357 356 357
329 332 336 340 341 342 341 341 341 340 344 347 346 347 348 352 353 353 353 351 349 348 348 348 349 350 351 351 350 351 351 352 354 352 352 352 352 353 354 356 357 357 358 356
328 331 333 337 341 342 341 340 340 339 339 344 341 346 349 350 352 351 351 351 350 349 348 347 348 349 350 350 351 351 352 353 354 353 354 355 355 356 355 355 355 356 357 356
326 328 328 332 338 340 341 338 338 337 338 338 337 346 350 351 353 352 351 351 350 350 348 347 346 347 347 349 350 351 353 354 354 355 353 355 352 350 350 351 351 355 358 357
324 325 326 330 335 337 339 336 337 336 337 336 341 343 350 348 351 352 352 351 350 349 349 348 346 345 346 346 348 349 352 355 354 355 353 356 355 351 351 352 356 359 358 359
324 324 325 327 331 333 335 336 338 338 338 338 338 342 342 345 345 346 347 350 350 349 349 349 347 346 346 346 347 349 351 355 356 356 356 356 355 353 352 353 352 353 356 358
324 324 324 324 326 328 332 331 334 336 340 336 339 341 340 340 340 341 342 349 349 349 349 349 349 347 347 347 348 349 352 356 356 356 356 357 357 356 354 355 352 350 354 355
324 323 325 325 325 326 327 329 330 336 338 334 339 338 340 338 338 343 344 347 349 349 348 349 349 348 348 348 349 350 352 356 355 356 356 357 357 355 353 353 352 350 352 352
325 324 325 325 325 327 328 330 330 331 332 333 334 335 335 337 342 345 348 348 350 349 348 349 348 348 348 349 350 351 352 356 356 355 357 357 357 356 352 353 355 352 354 354
326 325 324 324 324 325 327 329 329 330 333 335 332 333 333 336 334 343 348 347 349 349 349 348 349 348 348 349 349 351 352 355 355 354 355 356 356 357 356 355 356 355 353 356
326 325 325 324 325 326 326 328 328 330 331 333 333 332 331 332 334 343 349 348 348 347 349 349 349 348 349 349 349 351 353 355 350 343 342 349 354 355 356 354 355 356 357 357
326 325 326 325 326 326 328 327 328 330 332 330 329 329 331 337 344 347 350 349 352 351 348 347 348 348 349 350 350 352 353 351 343 341 337 338 346 352 352 354 354 354 357 358
326 325 325 326 325 325 326 328 329 330 329 328 329 329 341 345 346 349 350 354 357 353 351 347 350 349 349 350 351 353 354 348 345 345 342 341 347 351 353 353 355 355 357 358
329 325 325 326 327 327 327 328 328 328 327 328 329 329 338 342 346 351 350 356 357 354 352 351 351 352 351 352 354 354 354 350 348 349 348 349 350 351 353 355 356 356 358 360
327 326 326 327 327 328 328 327 326 327 328 328 328 329 332 337 345 349 351 357 358 356 354 353 354 357 357 356 356 355 354 354 353 352 354 352 356 358 358 357 357 357 359 359
327 327 328 327 328 331 331 332 329 327 328 328 329 329 341 347 349 350 353 358 359 358 357 357 357 356 356 357 357 357 358 357 356 356 355 355 357 357 357 360 361 362 361 362
328 328 330 330 333 335 333 334 337 330 329 329 329 336 348 351 351 352 356 358 360 362 362 361 360 358 357 358 360 361 363 362 362 363 364 365 366 367 367 367 367 367 366 366
328 329 330 333 337 335 333 341 341 342 340 335 333 344 346 350 349 353 355 357 360 361 362 357 352 351 350 348 355 360 362 364 365 365 365 365 365 365 365 365 365 366 366 366
327 330 334 335 333 333 335 342 344 344 341 342 340 340 348 351 353 358 356 358 358 359 357 353 350 345 346 352 354 353 353 355 355 356 358 361 360 358 358 358 360 361 361 363
328 331 333 333 333 335 334 342 342 344 347 345 346 349 349 349 355 357 358 357 358 355 352 351 345 344 347 350 350 350 351 350 349 348 349 350 350 348 347 350 353 357 359 357
333 333 333 335 332 333 342 343 343 347 352 346 344 349 348 350 350 354 357 357 356 353 353 350 343 343 348 351 351 351 349 349 348 346 348 348 345 346 349 352 353 353 354 356
337 335 332 333 334 336 340 344 345 352 349 349 347 350 348 349 350 352 357 355 357 356 353 352 349 345 348 353 353 351 352 351 351 349 347 345 346 345 345 351 352 353 354 354
341 334 333 335 335 347 342 348 347 347 351 351 350 349 347 347 349 348 355 356 353 354 352 353 354 352 352 356 356 353 356 362 357 354 348 345 347 349 350 352 352 350 347 347
345 343 340 346 348 345 344 346 346 347 347 347 348 348 346 347 346 350 350 355 352 349 350 351 355 357 358 361 361 359 361 359 352 347 347 347 348 349 349 347 342 341 340 341
344 346 350 352 348 346 347 347 347 345 344 345 346 347 346 345 346 348 351 352 351 351 353 353 356 356 355 355 357 352 348 347 346 347 347 346 344 343 343 344 342 342 342 344
346 345 345 337 349 348 348 345 344 344 345 345 346 346 345 345 346 348 349 350 350 348 348 351 353 353 350 351 348 348 349 350 350 347 343 343 343 342 341 342 342 343 346 346
Wind_Speed
13 12 15 16 11 4 1 2 2 5 4 4 4 5 12 16 16 16 17 17 19 19 20 21 20 19 17 17 17 18 17 16 14 13 11 10 8 6 5 3 3 4 5 4
9 17 17 15 12 9 8 6 3 6 3 4 2 7 10 17 19 18 17 18 18 18 18 21 21 20 21 20 20 20 20 19 17 14 12 9 7 6 4 3 4 4 6 3
17 13 15 9 12 14 13 11 2 5 3 6 8 8 8 15 15 17 17 17 17 18 19 19 22 22 21 22 23 24 23 21 19 17 12 9 7 7 7 7 6 6 6 6
12 5 9 18 19 16 16 3 4 3 6 4 3 1 9 11 15 18 17 19 18 19 19 18 23 24 22 23 21 21 21 21 19 18 15 13 10 10 9 8 6 6 7 7
11 10 14 19 20 15 16 0 3 3 10 7 10 7 9 9 10 15 19 20 20 21 20 19 20 23 23 21 20 20 20 20 19 19 19 15 14 10 9 9 6 6 6 7
10 1 12 15 14 7 8 8 10 8 10 10 7 7 9 10 5 4 10 19 22 21 21 20 22 19 19 18 17 17 19 19 19 19 19 18 14 12 9 9 10 9 7 8
15 10 5 7 12 11 12 14 11 12 11 10 6 6 10 5 5 1 3 16 21 20 19 18 18 20 19 19 18 18 18 20 20 20 19 19 17 14 13 11 12 11 8 8
13 15 14 13 16 13 16 18 11 10 11 8 5 7 3 3 4 3 3 12 19 20 18 19 20 23 22 21 21 21 20 19 20 21 20 18 17 15 15 13 12 12 11 8
12 14 9 7 12 12 15 15 16 18 4 8 4 5 10 3 3 2 6 9 16 18 19 21 21 24 23 22 21 22 21 18 16 14 14 15 16 18 17 15 13 13 12 10
4 11 8 12 7 7 10 16 10 10 12 10 9 6 9 7 6 4 8 8 12 15 16 16 15 20 22 22 21 18 17 14 13 10 11 17 19 19 19 17 17 15 13 11
11 10 9 8 14 16 10 9 12 10 7 9 9 7 8 5 5 6 7 5 5 8 12 14 15 16 17 18 21 18 17 18 19 7 18 22 19 19 18 18 18 17 16 14
18 8 10 16 11 8 15 19 16 11 13 10 11 10 4 3 5 7 6 5 4 3 7 11 14 15 15 16 18 19 23 26 29 32 30 24 20 21 18 18 18 18 18 17
16 10 9 11 10 8 14 14 13 15 14 11 8 9 7 6 5 7 7 6 6 6 8 11 14 13 15 16 18 21 25 29 31 23 13 18 17 16 17 20 17 17 19 19
13 16 14 11 14 13 20 14 15 16 12 12 10 13 11 7 8 9 8 6 9 11 11 14 14 14 16 17 18 19 21 22 24 14 10 9 9 15 15 15 16 17 17 19
15 16 14 4 4 4 8 14 14 16 15 11 7 12 15 3 7 10 9 8 11 14 15 15 15 13 16 16 15 15 14 15 15 14 11 8 7 6 8 11 16 16 16 18
17 9 11 11 6 8 8 7 10 16 16 9 14 11 8 5 11 10 10 11 12 15 13 15 14 15 17 18 18 15 13 12 10 9 10 10 13 13 13 14 14 14 15 17
15 9 9 12 9 6 9 12 11 11 11 14 14 4 6 10 13 12 13 13 14 15 16 16 16 18 20 19 19 18 15 12 9 5 3 3 4 6 7 7 9 12 14 15
12 16 9 5 8 10 2 3 4 10 8 11 11 1 2 10 11 12 13 15 16 17 18 16 19 22 21 22 22 21 18 15 12 9 6 4 2 1 2 4 6 8 10 13
16 13 6 6 10 3 6 6 6 5 9 10 11 6 9 12 12 10 13 15 16 17 16 19 20 20 21 22 23 22 18 17 14 11 7 4 2 1 2 4 5 7 9 10
12 14 9 7 7 8 6 7 3 3 7 10 9 9 11 16 13 11 14 16 16 19 19 19 21 21 20 21 22 20 17 16 14 11 8 6 3 2 3 5 6 6 8 10
11 11 13 10 9 5 6 9 6 7 6 10 6 6 12 14 6 15 16 15 18 20 20 19 19 18 17 17 17 17 16 14 14 13 10 6 2 1 2 4 6 8 10 11
10 9 7 8 10 9 10 8 5 5 6 5 4 9 14 7 9 14 15 14 14 17 20 20 18 16 14 12 11 11 11 12 12 9 7 4 1 1 4 6 7 9 10 12
5 3 6 8 9 5 11 4 4 3 6 6 9 13 14 11 8 8 12 13 13 16 18 19 18 15 13 12 9 9 8 8 9 6 3 3 2 4 5 7 10 13 13 14
3 3 4 6 4 8 10 4 3 5 9 8 11 15 14 10 8 9 10 11 10 13 14 16 16 14 11 10 10 7 6 6 5 3 3 5 6 6 8 11 14 16 18 17
1 8 8 4 6 8 6 7 11 12 12 13 14 13 9 10 11 9 8 8 9 8 9 10 11 10 8 7 7 6 6 4 2 3 5 8 11 10 13 14 16 18 18 16
8 9 9 9 14 2 14 12 13 14 14 13 15 14 13 12 11 11 10 9 8 8 7 7 6 7 7 7 7 6 4 2 2 6 8 10 13 15 16 17 18 14 15 15
Wind_Direction
198 211 219 217 226 19 300 317 23 85 34 266 245 248 172 183 196 190 188 191 196 200 196 194 199 197 198 198 197 200 200 199 197 205 208 212 220 214 228 239 229 222 216 207
181 221 219 232 228 227 237 266 115 129 67 266 227 261 188 183 197 200 196 192 198 197 196 195 195 199 203 204 206 205 206 203 202 209 214 223 221 219 245 237 220 222 207 206
225 215 225 231 214 234 239 255 47 347 333 244 292 231 180 190 199 201 205 204 198 199 197 191 196 201 202 205 207 208 208 204 205 207 210 218 226 233 238 234 242 237 222 216
239 167 230 225 230 224 247 128 192 249 280 325 324 296 176 169 202 206 207 201 204 203 203 203 198 201 204 209 209 213 210 206 206 204 209 214 224 232 232 241 249 242 235 226
201 211 220 226 226 225 254 215 217 240 265 264 193 261 111 158 193 208 211 210 209 195 204 205 206 199 204 206 208 211 212 209 204 205 206 212 222 229 235 238 251 246 224 218
254 244 237 235 235 227 245 231 220 241 269 267 216 254 170 152 91 156 194 203 207 205 202 202 205 203 206 206 208 208 205 207 205 202 206 207 216 227 235 235 245 247 230 225
206 198 191 236 215 216 209 226 233 227 228 243 109 235 267 52 47 152 224 189 199 201 201 204 204 198 201 203 204 204 201 199 198 203 203 206 211 219 232 237 242 251 241 237
203 207 199 190 221 208 217 228 229 217 241 240 142 238 217 72 350 347 208 178 188 195 197 200 203 202 199 199 198 197 198 198 198 198 206 206 209 219 231 237 243 236 245 249
210 229 176 198 208 232 192 228 245 272 231 284 247 194 272 161 119 77 138 156 182 192 195 194 197 201 195 195 197 196 192 194 199 203 208 218 221 222 223 231 235 238 243 250
199 235 186 179 197 216 259 213 208 234 256 242 243 232 277 201 293 148 154 179 170 190 196 196 195 197 192 192 192 189 187 176 179 191 216 215 215 226 229 227 233 235 236 240
232 243 158 170 208 193 195 208 235 281 237 276 257 248 263 285 305 186 147 178 180 202 189 196 186 188 185 184 179 174 161 158 141 122 271 214 220 216 225 230 234 238 238 235
216 230 189 207 196 264 232 217 217 224 218 242 286 291 10 119 150 162 134 133 129 184 182 183 168 161 166 173 164 160 160 168 182 206 211 222 218 223 219 228 228 234 236 235
196 231 215 175 182 193 229 231 255 243 247 270 259 273 137 144 159 145 141 120 137 133 141 163 136 149 151 161 158 168 172 188 194 203 197 214 220 219 227 233 233 235 234 234
189 224 233 210 215 203 206 215 227 246 236 244 233 266 170 170 168 158 142 136 121 121 134 134 142 144 149 155 164 174 183 198 213 217 201 188 214 221 225 234 240 241 241 238
222 231 219 235 320 263 228 201 213 228 238 258 276 230 240 65 175 161 141 132 129 132 131 137 136 137 144 151 155 169 181 203 226 243 236 227 222 232 240 249 255 251 248 244
216 220 193 233 230 242 226 226 221 222 248 258 268 274 85 109 146 153 151 138 139 130 130 123 133 141 145 147 146 152 167 184 199 228 255 250 249 259 254 254 255 257 255 253
217 208 200 217 195 213 230 211 215 225 231 234 237 329 134 161 170 160 153 146 134 125 122 124 129 132 131 132 134 137 142 148 155 169 207 232 246 255 258 263 263 261 257 255
220 225 211 188 177 224 88 92 248 255 244 237 246 144 210 162 166 153 160 142 137 131 124 126 127 126 134 134 129 128 129 131 130 127 129 123 117 29 323 310 297 290 280 263
229 220 197 202 222 230 222 201 224 238 275 208 229 190 179 160 144 148 149 143 140 135 134 136 135 137 137 138 132 129 129 129 129 123 124 121 101 20 337 316 303 298 291 284
211 214 224 206 250 235 292 128 148 191 203 177 178 167 178 171 178 157 160 145 141 142 143 146 144 147 143 140 136 133 137 140 134 129 125 119 101 25 350 326 310 297 284 279
176 202 215 198 234 215 114 147 142 242 83 136 174 142 170 193 344 138 157 154 151 146 152 152 154 155 160 150 147 156 156 162 151 145 145 141 125 12 344 325 316 306 295 290
185 189 207 233 225 234 161 157 241 62 103 134 183 168 177 129 130 149 160 157 151 155 160 167 170 171 173 173 177 178 182 171 165 161 157 151 144 300 307 303 302 298 293 287
226 247 190 238 204 136 172 36 85 72 115 132 156 160 147 139 124 154 171 163 161 168 172 179 175 179 188 191 202 208 203 194 174 172 188 224 231 262 275 289 295 297 288 279
209 242 199 184 144 157 159 158 124 121 103 113 145 157 152 131 136 129 152 166 169 176 183 189 186 182 180 190 190 197 187 198 169 184 254 286 291 287 297 298 299 298 298 294
40 173 170 115 136 148 149 133 128 117 108 107 123 144 158 136 131 123 131 153 161 160 154 170 181 175 176 175 159 158 158 160 203 259 283 286 288 300 301 292 301 301 299 299
189 181 194 202 168 211 141 142 133 123 116 117 112 105 94 102 107 102 93 99 124 132 124 127 137 142 130 131 131 119 108 87 309 292 293 311 307 309 306 307 306 302 294 297